Land O' Lakes, WI

1:27 PM CDT on June 27, 2017 (GMT -0500)
Kings Land O'Lakes

Weather History for KLNL - March, 2014

Change the Weather History Date:

Tuesday, March 4, 2014

  Actual Average (KEGV) Record (KEGV)
Temperature  
Mean Temperature 4 °F -  
Max Temperature 19 °F 37 °F 40 °F (1993)
Min Temperature -12 °F 17 °F -18 °F (2002)
Degree Days  
Heating Degree Days 61    
Moisture  
Dew Point 0 °F    
Average Humidity 73    
Maximum Humidity 88    
Minimum Humidity 51    
Precipitation  
Precipitation 0.04 in - - ()
Sea Level Pressure  
Sea Level Pressure 30.15 in    
Wind  
Wind Speed 2 mph (North)    
Max Wind Speed 8 mph    
Max Gust Speed -    
Visibility 8 miles    
Events Snow    
Averages and records for this station are not official NWS values.
T = Trace of Precipitation, MM = Missing Value Source: NWS Daily Summary

Daily Weather History Graph

Daily Weather History Graph

Search for Another Location

Airport or City:

Trip Planner

Search our weather history database for the weather conditions in past years. The results will help you decide how hot, cold, wet, or windy it might be!

Date:

Astronomy

Mar. 04, 2014 Rise Set
Actual Time 6:30 AM CST 5:47 PM CST
Civil Twilight 6:00 AM CST 6:17 PM CST
Nautical Twilight 5:25 AM CST 6:52 PM CST
Astronomical Twilight 4:50 AM CST 7:27 PM CST
Moon 8:02 AM CST (3/4) 10:10 PM CST (3/4)
Length of Visible Light 12h 17m
Length of Day
11h 17m
Waxing Crescent, 15% of the Moon is Illuminated
Mar 4
Waxing Crescent
Mar 8
First Quarter
Mar 16
Full
Mar 23
Last Quarter
Mar 30
New

Hourly Weather History & Observations

Time (CST) Temp. Windchill Dew Point Humidity Pressure Visibility Wind Dir Wind Speed Gust Speed Precip Events Conditions
12:15 AM 6.8 °F -2.0 °F 1.8 °F 80% 30.15 in 5.0 mi SW 4.6 mph - N/A Snow Light Snow
12:35 AM 6.8 °F -2.0 °F 1.8 °F 80% 30.16 in 5.0 mi WSW 4.6 mph - N/A Snow Light Snow
12:55 AM 6.4 °F -2.4 °F 0.9 °F 78% 30.15 in 7.0 mi WSW 4.6 mph - N/A Snow Light Snow
1:15 AM 6.3 °F -0.7 °F 1.0 °F 79% 30.15 in 7.0 mi West 3.5 mph - N/A Snow Light Snow
1:35 AM 6.3 °F - 0.9 °F 78% 30.14 in 7.0 mi Calm Calm - N/A Snow Light Snow
1:55 AM 6.3 °F - 1.0 °F 79% 30.14 in 10.0 mi Calm Calm - N/A Snow Light Snow
2:15 AM 5.9 °F - 1.0 °F 80% 30.14 in 5.0 mi Calm Calm - N/A Snow Light Snow
2:35 AM 5.9 °F - 1.4 °F 82% 30.14 in 2.0 mi Calm Calm - N/A Snow Light Snow
2:55 AM 5.7 °F - 1.4 °F 82% 30.13 in 3.0 mi Calm Calm - N/A Snow Light Snow
3:15 AM 5.7 °F -3.2 °F 1.4 °F 82% 30.13 in 2.0 mi WSW 4.6 mph - N/A Snow Light Snow
3:35 AM 5.7 °F -1.3 °F 1.4 °F 82% 30.13 in 2.0 mi WSW 3.5 mph - N/A Snow Light Snow
3:55 AM 5.5 °F - 1.2 °F 82% 30.12 in 2.5 mi Calm Calm - N/A Snow Light Snow
4:15 AM 5.5 °F - 1.0 °F 82% 30.12 in 1.8 mi Calm Calm - N/A Snow Light Snow
4:35 AM 5.4 °F -1.7 °F 1.0 °F 82% 30.12 in 2.0 mi WNW 3.5 mph - N/A Snow Light Snow
4:55 AM 5.4 °F - 1.0 °F 82% 30.11 in 1.5 mi Calm Calm - N/A Snow Light Snow
5:15 AM 5.0 °F - 0.9 °F 83% 30.11 in 2.0 mi Calm Calm - N/A Snow Light Snow
5:35 AM 5.0 °F -2.1 °F 1.0 °F 84% 30.11 in 2.0 mi West 3.5 mph - N/A Snow Light Snow
5:48 AM 5.0 °F - 1.4 °F 85% 30.11 in 2.0 mi Calm Calm - N/A Snow Light Snow
5:55 AM 5.0 °F - 0.9 °F 83% 30.12 in 2.0 mi Calm Calm - N/A Snow Light Snow
6:01 AM 5.0 °F - 1.4 °F 85% 30.12 in 2.0 mi Calm Calm - N/A Snow Light Snow
6:15 AM 4.8 °F - 0.5 °F 82% 30.12 in 1.8 mi Calm Calm - N/A Snow Light Snow
6:35 AM 4.6 °F - 0.5 °F 83% 30.12 in 1.5 mi Calm Calm - N/A Snow Light Snow
6:55 AM 4.6 °F - 0.5 °F 83% 30.12 in 2.0 mi Calm Calm - N/A Snow Light Snow
7:15 AM 5.0 °F - 0.5 °F 82% 30.13 in 4.0 mi Calm Calm - N/A Snow Light Snow
7:35 AM 5.5 °F - 0.5 °F 80% 30.13 in 7.0 mi Calm Calm - N/A Snow Light Snow
7:55 AM 5.7 °F - 0.5 °F 79% 30.13 in 10.0 mi Calm Calm - N/A Snow Light Snow
8:15 AM 5.7 °F - -0.0 °F 77% 30.12 in 10.0 mi Calm Calm - N/A Snow Light Snow
8:35 AM 6.8 °F -0.1 °F 0.1 °F 74% 30.12 in 10.0 mi NNW 3.5 mph - N/A Snow Light Snow
8:55 AM 7.3 °F - 0.3 °F 73% 30.12 in 10.0 mi Calm Calm - N/A Snow Light Snow
9:15 AM 8.2 °F - 0.5 °F 71% 30.11 in 10.0 mi Calm Calm - N/A   Clear
9:35 AM 10.0 °F - 1.9 °F 70% 30.11 in 10.0 mi Calm Calm - 0.01 in   Clear
9:55 AM 10.2 °F - 1.6 °F 68% 30.11 in 10.0 mi Calm Calm - 0.01 in   Clear
10:15 AM 11.8 °F - 1.9 °F 65% 30.11 in 10.0 mi Calm Calm - 0.02 in   Clear
10:35 AM 13.1 °F 7.1 °F 2.3 °F 62% 30.11 in 10.0 mi NE 3.5 mph - 0.02 in   Clear
10:55 AM 14.9 °F - 2.8 °F 59% 30.11 in 10.0 mi Calm Calm - 0.02 in   Scattered Clouds
11:15 AM 13.3 °F - 2.7 °F 63% 30.11 in 10.0 mi Calm Calm - 0.01 in   Scattered Clouds
11:35 AM 14.2 °F 5.3 °F 3.0 °F 61% 30.11 in 10.0 mi North 5.8 mph - 0.01 in   Scattered Clouds
11:55 AM 16.2 °F - 3.2 °F 57% 30.11 in 10.0 mi Calm Calm - 0.01 in   Clear
12:15 PM 14.9 °F 7.5 °F 3.4 °F 60% 30.11 in 10.0 mi NNW 4.6 mph - N/A   Scattered Clouds
12:35 PM 16.5 °F 11.0 °F 4.1 °F 58% 30.11 in 10.0 mi NNE 3.5 mph - N/A   Mostly Cloudy
12:55 PM 16.5 °F - 3.4 °F 56% 30.10 in 10.0 mi Calm Calm - N/A   Scattered Clouds
1:15 PM 16.7 °F - 3.7 °F 57% 30.10 in 10.0 mi Calm Calm - N/A   Scattered Clouds
1:35 PM 16.3 °F 10.8 °F 3.4 °F 57% 30.10 in 10.0 mi North 3.5 mph - N/A   Scattered Clouds
1:55 PM 17.4 °F 10.4 °F 3.6 °F 55% 30.10 in 10.0 mi NNW 4.6 mph - N/A   Scattered Clouds
2:15 PM 18.0 °F 8.7 °F 3.6 °F 53% 30.10 in 10.0 mi NNW 6.9 mph - N/A   Mostly Cloudy
2:35 PM 18.1 °F 11.3 °F 3.6 °F 53% 30.10 in 10.0 mi NNW 4.6 mph - N/A   Scattered Clouds
2:55 PM 19.0 °F 11.1 °F 3.6 °F 51% 30.10 in 10.0 mi NNW 5.8 mph - N/A   Mostly Cloudy
3:15 PM 18.3 °F 11.5 °F 3.9 °F 53% 30.11 in 10.0 mi North 4.6 mph - N/A   Mostly Cloudy
3:35 PM 18.3 °F 9.1 °F 3.7 °F 53% 30.11 in 10.0 mi North 6.9 mph - N/A   Mostly Cloudy
3:55 PM 18.9 °F 9.8 °F 3.7 °F 52% 30.12 in 10.0 mi North 6.9 mph - N/A   Mostly Cloudy
4:15 PM 18.1 °F 7.9 °F 3.9 °F 54% 30.12 in 10.0 mi NE 8.1 mph - N/A   Scattered Clouds
4:35 PM 16.0 °F 10.4 °F 3.4 °F 58% 30.13 in 10.0 mi North 3.5 mph - N/A   Clear
4:55 PM 15.4 °F 4.6 °F 4.8 °F 63% 30.13 in 10.0 mi North 8.1 mph - N/A   Clear
5:15 PM 14.7 °F 5.9 °F 4.5 °F 64% 30.14 in 10.0 mi North 5.8 mph - N/A   Clear
5:35 PM 14.0 °F 5.1 °F 4.3 °F 65% 30.15 in 10.0 mi NNE 5.8 mph - N/A   Clear
5:55 PM 12.9 °F 6.9 °F 3.9 °F 67% 30.15 in 10.0 mi NNE 3.5 mph - N/A   Clear
6:15 PM 11.3 °F 5.1 °F 3.2 °F 70% 30.17 in 10.0 mi NNE 3.5 mph - N/A   Clear
6:35 PM 10.4 °F 4.0 °F 2.8 °F 72% 30.17 in 10.0 mi North 3.5 mph - N/A   Clear
6:55 PM 10.2 °F 2.0 °F 2.7 °F 72% 30.18 in 10.0 mi North 4.6 mph - N/A   Clear
7:15 PM 9.1 °F 2.6 °F 2.3 °F 74% 30.18 in 10.0 mi North 3.5 mph - N/A   Clear
7:35 PM 8.1 °F 1.4 °F 1.9 °F 76% 30.19 in 10.0 mi NNE 3.5 mph - N/A   Clear
7:55 PM 7.2 °F 0.3 °F 1.2 °F 77% 30.19 in 10.0 mi North 3.5 mph - N/A   Clear
8:15 PM 6.1 °F -0.9 °F 0.9 °F 79% 30.20 in 10.0 mi NNE 3.5 mph - N/A   Clear
8:35 PM 0.3 °F - -4.0 °F 82% 30.21 in 10.0 mi Calm Calm - N/A   Clear
8:55 PM -1.7 °F - -4.7 °F 87% 30.22 in 10.0 mi Calm Calm - N/A   Clear
9:15 PM 0.3 °F -7.5 °F -2.4 °F 88% 30.23 in 10.0 mi North 3.5 mph - N/A   Clear
9:30 PM 1.9 °F -7.6 °F -1.8 °F 84% 30.23 in 10.0 mi NNE 4.6 mph - N/A   Clear
9:55 PM -1.7 °F -9.7 °F -5.1 °F 85% 30.24 in 10.0 mi NNE 3.5 mph - N/A   Clear
10:15 PM -6.9 °F - -11.2 °F 81% 30.25 in 10.0 mi Calm Calm - N/A   Clear
10:35 PM -8.5 °F - -12.6 °F 82% 30.27 in 10.0 mi Calm Calm - N/A   Clear
10:55 PM -9.2 °F - -13.9 °F 80% 30.28 in 10.0 mi Calm Calm - N/A   Clear
11:15 PM -11.2 °F - -16.1 °F 79% 30.28 in 10.0 mi Calm Calm - N/A   Clear
11:35 PM -11.6 °F - -16.1 °F 80% 30.29 in 10.0 mi Calm Calm - N/A   Clear
11:55 PM -12.5 °F - -17.7 °F 78% 30.29 in 10.0 mi Calm Calm - N/A   Clear